GAOFEN 14

导读 | 星芒AI

高分十四号(GAOFEN-14)卫星是中国高分辨率对地观测系统的重要组成部分,由航天科技集团研制,于2019年发射。该卫星主要用于国土普查、环境监测、资源调查和防灾减灾等领域,具备高分辨率、宽覆盖和快速响应能力。GAOFEN-14采用先进的光学遥感技术,提升了中国在遥感数据获取和应用方面的能力,为国家经济发展和安全提供了有力支持。

基本信息
目录编号:
47231
目录名称:
GAOFEN 14
国际标识:
2020-092A
轨道中心:
EARTH
卫星名称:
GAOFEN 14
卫星全名:
--
卫星状态:
在轨 (已飞行1835 天)
发射日期:
2020-12-06 UTC
国别 :
中国 (CN)
星等 :
--
轨道信息
数据来源 国际轨道数据 AOE轨道数据
星历时间 2025-12-15T07:13:47+0800
19小时前
查看轨道信息
2025-12-12T11:00:00+0800
3天前
查看轨道信息
半长轴 6867.047km 6867.19km
偏心率 0.0001643 0.0001558
轨道倾角 97.249° 97.248°
近地点辐角 101.464° 104.112°
升交点赤经 55.614° 52.860°
平近点角 258.678° 132.394°
近地点 487.783km 487.985km
远地点 490.041km 490.125km
周期 94.388分钟 94.390分钟
每日圈数 15.25625 15.255774
详细信息
使用方式:
暂无
2D轨道图
3D轨道图
轨道高度分析图
轨道倾角分析图
轨道综合分析图
查看轨道综合分析图